"Pseudo-MPEC" for P1134Vq

Created 2020 Aug 6 7:07:09 UT using Find_Orb

Click here for an explanation of pseudo-MPECs

 
 Astrometry: 
     P1134Vq  C2020 07 228U5+,ob/Sf`5rOn,$Z@4#VfgckAstrometryr9;eredacted;o*pF51
     P1134Vq  C2020 07 22UyXdSxKBKT6Ca:#[(ZclickknGk1mJhere.)slyNl1mydrA5LW2gF51
     P1134Vq  C2020 07 22Ki#-JfornUq:fdXjLa?:Fe%mdiexplanatione+Xlj3AZ6N^_]UyF51

Station data:
(F51) Pan-STARRS 1, Haleakala  (N20.707235 W156.255910)  US/Hawaii.
   Observers N. Primak, A. Schultz, S. Watters, J. Thiel, T. Goggia. Measurer
   PS1 Science Consortium. 1.8-m Ritchey-Chrétien + CCD.

Orbital elements:  P1134Vq
   Perihelion 2020 Mar 11.127828 +/- 262 TT =  3:04:04 (JD 2458919.627828)
Epoch 2020 Jul 22.0 TT = JDT 2459052.5   Earth MOID: 0.2476   Ma: 0.0165
M  79.85700834 +/- 90               (J2000 ecliptic)          AutoNEOCP
n   0.60100626 +/- 0.302            Peri.  240.00059 +/- 60
a   1.39064639 +/- 0.466            Node   332.16193 +/- 28
e   0.1021535 +/- 0.241             Incl.    2.84055 +/- 48
P   1.64/598.98d           H 23.5   G  0.15   U 11.9  SR
q 1.24858697 +/- 0.918    Q 1.53270582 +/- 27.2
From 3 observations 2020 July 22 (31.3 min); mean residual 0".06
Residuals in arcseconds: 
200722 F51  .01+  .06-    200722 F51  .02-  .12+    200722 F51  .01+  .06-    

Ephemerides (geocentric):
Date (UTC) HH   RA              Dec         delta   r     elong  mag " sig PA
---- -- -- --  -------------   -----------  ------ ------ -----  --- ---- ---
2020 08 06 07  20 53 29.869   -21 00 42.33  .38969 1.4027 174.7 22.5  32d  14
2020 08 06 08  20 53 25.792   -21 00 40.88  .38978 1.4028 174.7 22.5  32d  14
2020 08 06 09  20 53 21.717   -21 00 39.41  .38986 1.4028 174.6 22.5  32d  14
2020 08 06 10  20 53 17.645   -21 00 37.93  .38995 1.4029 174.6 22.5  32d  14
2020 08 06 11  20 53 13.575   -21 00 36.43  .39003 1.4030 174.6 22.5  32d  14
2020 08 06 12  20 53 09.507   -21 00 34.91  .39012 1.4030 174.5 22.5  32d  14
2020 08 06 13  20 53 05.442   -21 00 33.38  .39021 1.4031 174.5 22.5  32d  14
2020 08 06 14  20 53 01.379   -21 00 31.82  .39029 1.4032 174.4 22.5  32d  14
2020 08 06 15  20 52 57.319   -21 00 30.25  .39038 1.4032 174.4 22.5  32d  14
2020 08 06 16  20 52 53.261   -21 00 28.66  .39047 1.4033 174.4 22.6  32d  14
2020 08 06 17  20 52 49.206   -21 00 27.06  .39056 1.4033 174.3 22.6  32d  14
2020 08 06 18  20 52 45.153   -21 00 25.43  .39064 1.4034 174.3 22.6  32d  14
2020 08 06 19  20 52 41.102   -21 00 23.79  .39073 1.4035 174.2 22.6  32d  14
2020 08 06 20  20 52 37.055   -21 00 22.13  .39082 1.4035 174.2 22.6  33d  14
2020 08 06 21  20 52 33.009   -21 00 20.45  .39091 1.4036 174.2 22.6  33d  14
2020 08 06 22  20 52 28.967   -21 00 18.75  .39100 1.4036 174.1 22.6  33d  14
2020 08 06 23  20 52 24.927   -21 00 17.04  .39109 1.4037 174.1 22.6  33d  14
2020 08 07 00  20 52 20.889   -21 00 15.30  .39118 1.4038 174.0 22.6  33d  14
2020 08 07 01  20 52 16.854   -21 00 13.55  .39127 1.4038 174.0 22.6  33d  14
2020 08 07 02  20 52 12.822   -21 00 11.79  .39136 1.4039 173.9 22.6  33d  14
2020 08 07 03  20 52 08.792   -21 00 10.00  .39145 1.4040 173.9 22.6  33d  14
2020 08 07 04  20 52 04.765   -21 00 08.20  .39154 1.4040 173.9 22.6  33d  14
2020 08 07 05  20 52 00.741   -21 00 06.37  .39163 1.4041 173.8 22.6  33d  14
2020 08 07 06  20 51 56.719   -21 00 04.53  .39172 1.4041 173.8 22.6  33d  14
2020 08 07 07  20 51 52.701   -21 00 02.68  .39181 1.4042 173.7 22.6  33d  14
2020 08 07 08  20 51 48.684   -21 00 00.80  .39190 1.4043 173.7 22.6  33d  14
2020 08 07 09  20 51 44.671   -20 59 58.91  .39200 1.4043 173.6 22.6  33d  14
2020 08 07 10  20 51 40.660   -20 59 56.99  .39209 1.4044 173.6 22.6  33d  14
2020 08 07 11  20 51 36.652   -20 59 55.07  .39218 1.4044 173.5 22.6  33d  14
2020 08 07 12  20 51 32.647   -20 59 53.12  .39227 1.4045 173.5 22.6  33d  14
2020 08 07 13  20 51 28.644   -20 59 51.15  .39237 1.4046 173.5 22.6  33d  14
2020 08 07 14  20 51 24.645   -20 59 49.17  .39246 1.4046 173.4 22.6  33d  14
2020 08 07 15  20 51 20.648   -20 59 47.17  .39255 1.4047 173.4 22.6  33d  14
2020 08 07 16  20 51 16.654   -20 59 45.15  .39265 1.4047 173.3 22.6  33d  14
2020 08 07 17  20 51 12.662   -20 59 43.11  .39274 1.4048 173.3 22.6  33d  14
2020 08 07 18  20 51 08.674   -20 59 41.05  .39284 1.4049 173.2 22.6  33d  14
2020 08 07 19  20 51 04.688   -20 59 38.98  .39293 1.4049 173.2 22.6  33d  14
2020 08 07 20  20 51 00.706   -20 59 36.89  .39303 1.4050 173.1 22.6  33d  14
2020 08 07 21  20 50 56.726   -20 59 34.78  .39312 1.4051 173.1 22.6  33d  14
2020 08 07 22  20 50 52.749   -20 59 32.65  .39322 1.4051 173.0 22.6  33d  14
2020 08 07 23  20 50 48.775   -20 59 30.51  .39331 1.4052 173.0 22.6  33d  14
2020 08 08 00  20 50 44.804   -20 59 28.34  .39341 1.4052 172.9 22.6  33d  14
2020 08 08 01  20 50 40.836   -20 59 26.16  .39350 1.4053 172.9 22.6  33d  14
2020 08 08 02  20 50 36.871   -20 59 23.96  .39360 1.4054 172.9 22.6  33d  14
2020 08 08 03  20 50 32.909   -20 59 21.75  .39370 1.4054 172.8 22.6  33d  14
2020 08 08 04  20 50 28.950   -20 59 19.51  .39379 1.4055 172.8 22.6  33d  14
2020 08 08 05  20 50 24.994   -20 59 17.26  .39389 1.4055 172.7 22.6  33d  14
2020 08 08 06  20 50 21.041   -20 59 14.99  .39399 1.4056 172.7 22.6  33d  14